www.pogodaiklimat.ru

Погода и климат >> Архив погоды >> Индонезия >> Meulaboh


ПОГОДА в Meulaboh

  • Прогноз погоды в Meulaboh
  • Монитор погоды в Meulaboh
  • Климат города

АРХИВ ПОГОДЫ в Meulaboh

Время (UTC), дата Ветер
(напр.,м/с)
 
Видим.   Явления Облачность Т
(С)
Тd
(С)
f
(%)
Тe
(С)
Тes
(С)
Комфортность P
(гПа)
Po
(гПа)
Тmin
(С)
Tmax
(С)
R
(мм)
R24
(мм)
S
(см)
03 19.02 ЮВ 2 10 км 5/5 500 м
[Cu med, cong Ac trans Ci sp]
+30.2 +26.5 81 +47 +53 опасность
перегрева
1010.4 1009.8
06 19.02 З 3 10 км 6/5 570 м
[Cu med, cong Ac trans Ci sp]
+31.6 +27.7 80 +51 +59 опасность
перегрева
1008.9 1008.3
09 19.02 Ю 3 10 км 8/6 500 м
[Cu med, cong Ac trans Ci sp]
+30.2 +26.8 82 +47 +49 опасность
перегрева
1006.4 1005.8
12 19.02 В 2 3000 м слабый ливневой дождь, в посл. час гроза 9/6 420 м
[Cb cap As op Ci sp]
+26.7 +25.8 95 +40 +40 очень
душно
1008.8 1008.2 +32.3 0.0
15 19.02 В 2 3000 м гроза, ливневой дождь 10/8 360 м
[Cb cap Ac lent]
+23.3 +23.0 98 +33 +33 очень
душно
1011.2 1010.6 5
18 19.02 В 2 5000 м в посл. час гроза {дождь} 10/6 450 м
[Cb cap Ac lent]
+23.0 +22.7 98 +32 +32 очень
душно
1010.2 1009.6 5
21 19.02 штиль 0 6000 м 9/4 500 м
[Sc Ac As Ci sp]
+23.0 +22.4 96 +31 +31 очень
душно
1008.6 1008.0
00 20.02 В 1 6000 м 8/4 500 м
[Sc Ac As Ci sp]
+23.2 +22.9 98 +32 +32 очень
душно
1008.1 1007.5 +23.0 10
03 20.02 ЮВ 2 15 км 5/1 660 м
[Cu hum As op Ci fib]
+29.1 +25.9 83 +44 +53 опасность
перегрева
1010.0 1009.3
06 20.02 ЮЗ 3 10 км 5/3 600 м
[Cu med, cong As trans Ci fib]
+30.4 +26.4 79 +46 +56 опасность
перегрева
1008.4 1007.8
09 20.02 З 5 10 км 6/3 600 м
[Sc diur, vesp As trans Ci sp]
+31.0 +27.1 80 +49 +51 опасность
перегрева
1006.2 1005.5
12 20.02 Ю 2 6000 м 9/5 500 м
[Cb cap Ac trans Ci sp]
+29.2 +26.0 83 +44 +44 опасность
перегрева
1007.5 1006.8 +31.4
15 20.02 СВ 2 6000 м 9/5 420 м
[Cb cap Ac As Ci sp]
+25.8 +24.4 92 +36 +36 очень
душно
1009.0 1008.4
18 20.02 СВ 2 6000 м 9/5 420 м
[Cb cap Ac As Ci sp]
+25.0 +23.6 92 +34 +34 очень
душно
1009.1 1008.5
21 20.02 ЮВ 2 6000 м в посл. час гроза 9/5
[Cb cap As op Ci sp]
+24.9 +24.1 95 +34 +34 очень
душно
1007.5 1006.9
00 21.02 В 2 3000 м дымка {гроза} 9/5 420 м
[Cb cap As op Ci sp]
+24.6 +24.1 97 +34 +34 очень
душно
1008.2 1007.6 +23.2
03 21.02 В 1 10 км 6/4 500 м
[Sc Ac As Ci sp]
+29.2 +25.4 80 +43 +50 опасность
перегрева
1009.6 1009.0
06 21.02 Ю 3 5000 м осадки на расстоянии {гроза} 9/6 420 м
[Cb cap Ac As Ci fib]
+28.6 +26.3 87 +43 +48 опасность
перегрева
1008.4 1007.8
09 21.02 Ю 2 10 км 8/5 500 м
[Cb cap Ac As Ci sp]
+29.0 +26.1 84 +44 +46 опасность
перегрева
1006.2 1005.5
12 21.02 СВ 2 7000 м 9/6 420 м
[Cb cap Ac As Ci sp]
+27.6 +25.2 87 +40 +40 очень
душно
1007.7 1007.1 +31.0
15 21.02 В 2 7000 м {гроза} 10/5 480 м
[Sc Ac und]
+24.7 +23.7 94 +34 +34 очень
душно
1009.0 1008.4
18 21.02 В 1 6000 м {гроза} 9/6
[Cb calv Ac trans Ci sp]
+24.3 +23.6 96 +33 +33 очень
душно
1008.9 1008.3
21 21.02 штиль 0 6000 м гроза без осадков 9/6 420 м
[Cb cap Ac As Ci fib]
+23.9 +23.1 95 +32 +32 очень
душно
1007.7 1007.1
00 22.02 штиль 0 5000 м мгла {гроза} 9/8 420 м
[Cb calv Ac As Ci fib]
+23.8 +23.0 95 +32 +32 очень
душно
1008.5 1007.9 +23.7
03 22.02 штиль 0 9000 м 9/6 420 м
[Cb cap Ac As Ci sp]
+27.8 +25.4 87 +41 +45 опасность
перегрева
1010.0 1009.3
06 22.02 ЮЗ 5 2000 м гроза, ливневой дождь 10/6
[Cb cap Ac lent]
+25.4 +24.3 94 +35 +36 очень
душно
1008.8 1008.2 6
09 22.02 В 1 6000 м в посл. час гроза {дождь} 10/5 420 м
[Sc Ac As]
+24.1 +24.0 99 +33 +34 очень
душно
1007.2 1006.6 27
12 22.02 В 1 5000 м в посл. час дождь {гроза} 10/8 450 м
[Cb calv Ac cuf]
+23.9 +23.5 98 +32 +32 очень
душно
1008.8 1008.2 +29.1 0.8
15 22.02 штиль 0 4000 м {дождь} 10/10 450 м
[]
+24.3 +23.9 98 +33 +33 очень
душно
1011.3 1010.7 3
18 22.02 штиль 0 6000 м {дождь} 10/10 450 м
[]
+23.7 +23.3 98 +32 +32 очень
душно
1010.4 1009.7 0.4
21 22.02 штиль 0 6000 м 10/6 420 м
[Cb cap Ac trans]
+23.0 +23.0 100 +32 +32 очень
душно
1009.4 1008.8
00 23.02 штиль 0 5000 м дымка {дождь} 10/6 420 м
[Cb cap Ac lent]
+23.0 +23.0 100 +32 +32 очень
душно
1010.1 1009.5 +22.5 37
03 23.02 В 1 10 км 9/5 500 м
[Cu med, cong Ac As Ci sp]
+27.0 +24.6 87 +38 +43 очень
душно
1012.1 1011.5
06 23.02 ЮЗ 3 10 км 9/5 500 м
[Cu med, cong Ac As Ci sp]
+29.2 +25.7 81 +43 +48 опасность
перегрева
1010.0 1009.4
09 23.02 штиль 0 6000 м 10/4 420 м
[Sc As op Ci sp]
+29.6 +25.9 81 +44 +48 опасность
перегрева
1008.2 1007.6
12 23.02 штиль 0 6000 м 10/4 450 м
[Sc As op Ci sp]
+28.0 +25.9 88 +42 +42 опасность
перегрева
1008.7 1008.1 +30.0
15 23.02 штиль 0 7000 м 9/6 500 м
[Sc Ac As Ci fib]
+25.7 +24.1 91 +36 +36 очень
душно
1010.5 1009.9
18 23.02 В 1 7000 м 9/6 480 м
[Cb cap Ac As Ci fib]
+24.8 +24.3 97 +34 +34 очень
душно
1010.0 1009.3
21 23.02 штиль 0 6000 м 9/5 450 м
[Cb cap Ac As Ci sp]
+24.0 +23.2 95 +32 +32 очень
душно
1009.3 1008.7
00 24.02 штиль 0 5000 м дымка 9/6 450 м
[Sc Ac As Ci sp]
+23.2 +22.6 96 +32 +32 очень
душно
1010.1 1009.5 +23.0
03 24.02 В 1 10 км 9/5 500 м
[Cu med, cong Ac As Ci sp]
+28.6 +25.9 85 +43 +47 опасность
перегрева
1011.5 1010.9
06 24.02 СЗ 4 10 км 6/3 600 м
[Cu med, cong As op Ci sp]
+30.6 +26.6 79 +47 +55 опасность
перегрева
1008.9 1008.3
09 24.02 штиль 0 9000 м 8/4 500 м
[Sc As op Ci sp]
+31.0 +26.1 75 +46 +51 опасность
перегрева
1006.6 1006.0
12 24.02 З 2 7000 м 9/4 500 м
[Sc As op Ci sp]
+28.8 +24.2 76 +40 +40 очень
душно
1008.5 1007.9 +31.1
15 24.02 В 3 5000 м гроза без осадков 9/6 420 м
[Cb cap Ac As Ci fib]
+27.1 +24.9 88 +39 +39 очень
душно
1010.6 1010.0
18 24.02 СЗ 1 4000 м гроза, ливневой дождь 10/6 420 м
[Cb cap Ac lent]
+25.8 +25.4 98 +38 +38 очень
душно
1010.4 1009.8 2
21 24.02 ЮВ 1 3000 м дымка {гроза, дождь} 10/5 480 м
[Sc Ac und]
+24.9 +24.8 99 +35 +35 очень
душно
1008.9 1008.3 0.1
00 25.02 ЮВ 1 5000 м дымка {гроза, дождь} 10/5 480 м
[Sc Ac As]
+25.2 +24.8 98 +36 +36 очень
душно
1010.0 1009.4 +23.2 2
03 25.02 Ю 2 7000 м 10/8 450 м
[Cb cap Ac lent]
+27.8 +25.4 87 +41 +41 опасность
перегрева
1011.0 1010.4
06 25.02 ЮЗ 3 8000 м 10/6 450 м
[Cb cap Ac As Ci sp]
+29.6 +26.1 82 +45 +48 опасность
перегрева
1009.0 1008.5
09 25.02 З 3 12 км 9/5 500 м
[Sc Ac lent Ci fib]
+29.7 +26.4 82 +45 +47 опасность
перегрева
1005.8 1005.2
12 25.02 ЮЗ 3 5000 м осадки на расстоянии 10/6 480 м
[Cb cap Ac As Ci fib]
+28.4 +26.0 87 +43 +43 опасность
перегрева
1007.1 1006.5 +31.5
15 25.02 ЮВ 1 6000 м 9/5 570 м
[Sc Ac As Ci sp]
+26.7 +24.7 89 +38 +38 очень
душно
1009.3 1008.7
18 25.02 В 1 6000 м 9/5 570 м
[Sc Ac As Ci sp]
+25.8 +24.2 91 +36 +36 очень
душно
1009.1 1008.5
21 25.02 штиль 0 6000 м зарница 9/5 450 м
[Cb calv As trans Ci sp]
+26.2 +25.7 97 +39 +39 очень
душно
1008.2 1007.6

 

Местоположение метеостанции Meulaboh (Индонезия): широта 4.25 долгота 96.12 высота над уровнем моря 90 м.

В архиве по умолчанию представлена погода в Meulaboh за последнюю неделю. Архивные данные за месяц целиком и за предыдущие месяцы, начиная с января 2011 года, Вы можете получить, выбрав интересующий диапазон дат из раскрывающегося списка и нажав кнопку "Ввод!".

Внимание! Время в таблицах - всемирное. Для получения местного времени необходимо прибавить поправку, которая в Meulaboh равна 7 ч.

Смотрите также архив погоды в соседних городах и на ближайших метеорологических станциях:

Погода в Banda Aceh (Индонезия) (161 км)
Погода в Lhokseumawe (Индонезия) (162 км)
Погода в Sabang (Индонезия) (201 км)
Погода в Belawan (Индонезия) (291 км)
Погода в Medan Polonia Int Airport (Индонезия) (294 км)
Погода в Gunungsitoli (Индонезия) (349 км)
Погода в Sibolga (Индонезия) (429 км)
Погода в Langkawi (Малайзия) (462 км)
Погода в Penang (Малайзия) (474 км)
Погода в Phuket (Таиланд) (476 км)

Пояснения к столбцам:

Ветер - указаны скорость ветра в м/с - средняя за 10 мин, порывы в срок и между сроками (в фигурных скобках) и направление, откуда дует ветер: С - северный, СВ - северо-восточный, В - восточный, ЮВ - юго-восточный, Ю - южный, ЮЗ - юго-западный, З - западный, СЗ - северо-западный.
Видимость - горизонтальная дальность видимости в метрах или километрах. При видимости от 1 до 10 км при отсутствии осадков обычно наблюдается дымка, при ухудшении видимости до 1 км и менее - туман. В сухую погоду видимость может ухудшаться дымом, пылью или мглою.
Явления - указаны атмосферные явления, наблюдавшиеся в срок или в последний час перед сроком; фигурными скобками обозначены явления, наблюдавшиеся между сроками (за 1-3 часа до срока); квадратными скобками обозначены град или гололедные отложения с указанием их диаметра в мм.
Облачность - указаны через наклонную черту общая и нижняя облачность в баллах и высота нижней границы облаков в метрах; квадратными скобками обозначены формы облаков: Ci - перистые, Cs - перисто-слоистые, Cc - перисто-кучевые, Ac - высококучевые, As - высокослоистые, Sc - слоисто-кучевые, Ns - слоисто-дождевые, Cu - кучевые, Cb - кучево-дождевые. Подробнее классификацию облаков см. в Атласе облаков (PDF).
T - Температура воздуха - температура, измеренная на высоте 2 м над землей.
Td - Температура точки росы - температура, при понижении до которой содержащийся в воздухе водяной пар достигнет насыщения.
f - Относительная влажность воздуха - влажноcть воздуха, измеренная на высоте 2 м над землей.
Te - Эффективная температура - температура, которую ощущает одетый по сезону человек в тени. Характеристика душности погоды. При расчете учитывается влияние влажности воздуха и скорости ветра на теплоощущения человека.
Tes - Эффективная температура на солнце - температура, которую ощущает человек, с поправкой на солнечный нагрев. Характеристика знойности погоды. Зависит от высоты солнца над горизонтом, облачности и скорости ветра. Ночью, в пасмурную погоду, а также при ветре 12 м/с и более поправка равна нулю.
P - Атмосферное давление - приведенное к уровню моря атмосферное давление.
Po - Атмосферное давление - измеренное на уровне метеостанции атмосферное давление.
Tmin - Минимальная температура - минимум температуры воздуха на высоте 2 м над землей.
Tmax - Максимальная температура - максимум температуры воздуха на высоте 2 м над землей.
R - Количество осадков - Количество выпавших осадков за период времени, мм. При наведении курсора мыши на число - период времени, за который выпало указанное количество осадков.
R24 - Количество осадков - Количество выпавших осадков за 24 часа, мм.
S - Снежный покров - Высота снежного покрова, см. При наведении курсора мыши на число - состояние снежного покрова и степень покрытия местности в баллах.